Other Surface Observations
Issued by NWS Charleston, SC

Home | Current Version | Previous Version | Text Only | Print | Product List | Glossary On
Versions: 1 2 3 4 5 6 7 8 9 10 11 12 13 14 15 16 17 18 19 20 21 22 23 24 25 26 27 28 29 30 31 32 33 34 35 36 37 38 39 40 41 42 43 44 45 46 47 48 49 50
000
SXUS52 KCHS 252010
OSOCHS

MARINE OBSERVATIONS
NATIONAL WEATHER SERVICE CHARLESTON SC
300 PM EST THU DEC 25 2014

...DOWNTOWN CHARLESTON AND HARBOR...

CITY           SKY/WX    TMP DP  RH WIND       PRES   REMARKS
WATERFRONT PRK   N/A     61 N/A N/A NW5         N/A
FORT JOHNSON   NOT AVBL

...LAKE MOULTRIE...

CITY           SKY/WX    TMP DP  RH WIND       PRES   REMARKS
PINOPOLIS        N/A     59  46  63 VRB3      30.07

...LAKE AND SUPPLEMENTAL COASTAL OBSERVATIONS...

STATION/POSITION TIME  TEMP    WIND        PRES    WAVE   SWELL
                       AIR SEA DIR/SP/G            HT/PER HT/PER/DIR
                 (UTC) (F)     (DEG/KT/KT) (MB)    (FT/S) (FT/S/D)
FORT PULASKI     2000   56 56  290/  9/ 13 1021.4S
SAPELO ISLAND    1900   56     280/  8     1021.0F
UPR LAKE MARION  NOT AVBL
WINYAH BAY       1900   57     290/  7     1019.0R
LAKE MURRAY      1900   55     280/ 10/ 11 1019.6R
ACE BASIN NERRS  1900   57     290/  3     1021.0S


...C-MAN AND BUOY OBSERVATIONS...

STATION/POSITION TIME  TEMP    WIND        PRES    WAVE   SWELL
                       AIR SEA DIR/SP/G            HT/PER HT/PER/DIR
                 (UTC) (F)     (DEG/KT/KT) (MB)    (FT/S) (FT/S/D)
BUOY 41004       2000   56 71  290/ 14/ 17 1020.0R   4/ 6   2/ 8
BUOY 41008       2000   53 58  290/ 10/ 14 1021.4R   2/ 3   2/ 80/10
FOLLY BEACH CMAN 1900   54     210/  9/ 10 1020.9S
CAPERS NS BUOY   1900   54     250/ 12/ 12   N/A
FRIPP NS BUOY    NOT AVBL
5E ST. MARYS GA  2000      61                N/A     1/10


STATION/POSITION TIME  TEMP    WIND        PRES    WAVE   SWELL
                       AIR SEA DIR/SP/G            HT/PER HT/PER/DIR
                 (UTC) (F)     (DEG/KT/KT) (MB)    (FT/S) (FT/S/D)
FRYING PAN BUOY  2000   57 71  290/ 14/ 17 1019.7R   5/ 7   3/190/ 7
BUOY 41025       2000   58                 1017.5R   6/ 9
CAPE LOOKOUT NC  1900   56     260/  9/ 11 1017.1R
BUOY 41002       1901   72 74  290/ 17/ 21 1018.8    9/ 7   5/270/ 8
BUOY 41010       2000   69 76  340/ 14/ 17 1020.8R   6/ 6   3/320/ 7
ST AUGUSTINE FL  2000   58     360/  5/  6 1021.9F

$$



USA.gov is the U.S. government's official web portal to all federal, state and local government web resources and services.